Zurück zum Katalog

CZ-6A DEB

AktivSSO
NORAD 54293·DEBRIS·🇨🇳 China

Gestartet Nov 11, 2022 von Taiyuan Satellite Launch Center

Loading…

Nächste Überflüge (nächste 24 Stunden)

TLE

AktuellSource: Space-Track

Epoche: Sep 14, 2026, 07:41 UTC

1 54293U 22151AL  26257.32056700  .00000272  00000-0  13601-3 0  9994
2 54293  98.7516 281.8924 0039033 228.6202 131.1618 14.24350105198919

Verfolge CZ-6A DEB in Echtzeit mit AllMySat

Download on the App Store